Location: Grums
(59.3529°N, 13.1129°E)
Time: 10:42:04
(UTC+02:00)

Envisat - Pass Details

Date: 27 September 2021
Orbit: 764 x 766 km, 98.2° (Epoch: 16 October)

Event Time Altitude Azimuth Distance (km) Brightness Sun altitude
Rises 06:18:09 0° 17° (NNE) 3,248 6.6 -6.6°
Reaches altitude 10° 06:20:30 10° 22° (NNE) 2,317 5.9 -6.3°
Maximum altitude 06:25:33 59° 102° (ESE) 885 3.8 -5.7°
Drops below altitude 10° 06:30:34 10° 182° (S) 2,300 5.4 -5.0°
Sets 06:32:54 0° 186° (S) 3,222 6.1 -4.7°
